Погода в Каньямели

Испания     39°39′30″N   3°26′19″E
темп.,
°C
ветер,
м/с
пор.,
м/с
влажн.,
%
обл.,
%
осадки,
мм/ч
давл.,
гПа
погр.,
м
25 июля, вс
вс2523:00+26ссв34855 0.0 101065
02:00+25ссв668844 0.0 1009302
05:00+25св69792 0.0 1008511
08:00+25ссв710745 0.0 1009565
11:00+25ссв67695 0.0 1010568
14:00+24ссв66715 0.0 1011550
17:00+24ссв767529 0.0 1010395
20:00+24ссв5576100 0.0 1009317
26 июля, пн
пн2623:00+25в44780 0.0 1011378
02:00+24св237721 0.0 1011250
05:00+24с577270 0.0 1010436
08:00+25св7975100 0.0 1011671
11:00+25св6769100 0.0 1013640
14:00+25ссв886955 0.0 1014625
17:00+25св7770100 0.0 1013532
20:00+25св567245 0.0 1013509
27 июля, вт
вт2723:00+24в33720 0.0 1015429
02:00+24ссв33760 0.0 1014321
05:00+24ссв44752 0.0 1014352
08:00+24св45705 0.0 1014532
11:00+25в44690 0.0 1015492
14:00+25в22750 0.0 1015308
17:00+26вюв43750 0.0 1013337
20:00+26вюв33785 0.0 1013252
28 июля, ср
ср2823:00+25юв34830 0.0 1013122
02:00+25ююв45900 0.0 1013298
05:00+24сз11860 0.0 1012104
08:00+25с34840 0.0 1013320
11:00+25св44770 0.0 1013325
14:00+26ссв44740 0.0 1014278
17:00+26св55740 0.0 1013264
20:00+26в33760 0.0 101297
29 июля, чт
чт2923:00+26в22790 0.0 101328
02:00+25в22820 0.0 1013100
05:00+25ссв34810 0.0 1012200
08:00+25св34800 0.0 1013287
11:00+25всв23740 0.0 1014211
14:00+26вюв33690 0.0 1013244
17:00+27юв55690 0.0 1012228
20:00+27ююв55720 0.0 1011115